Location: Homewood
(41.1836°S, 175.9581°E)
Time: 18:40:13
(UTC+00:00)

NOSS 3-3 (A) - Pass Details

Date: 18 July 2024
Orbit: 719 x 1490 km, 63.4° (Epoch: 30 April)

Event Time Altitude Azimuth Distance (km) Brightness Sun altitude
Exits shadow 17:43:28 15° 204° (SSW) 2,396 5.7 -20.7°
Maximum altitude 17:48:32 48° 133° (SE) 1,142 4.6 -19.8°
Drops below altitude 10° 17:53:44 10° 59° (ENE) 2,355 7.1 -18.8°
Sets 17:56:04 0° 52° (NE) 3,217 7.9 -18.4°
